Regional Weather Roundup
Issued by NWS

Home | Current Version | Previous Version | Graphics & Text | Print | Product List | Glossary On
Versions: 1 2 3 4 5 6 7 8 9 10 11 12 13 14 15 16 17 18 19 20 21 22 23 24 25 26 27
000
ASUS45 KTFX 221010
RWRMT
MONTANA REGIONAL WEATHER ROUNDUP
NATIONAL WEATHER SERVICE GREAT FALLS MT
400 AM MDT TUE AUG 22 2017

NOTE: "FAIR" INDICATES FEW OR NO CLOUDS BELOW 12000 FEET WITH NO
SIGNIFICANT WEATHER AND/OR OBSTRUCTIONS TO VISIBILITY.

MTZ001>007-043-221100-
WEST OF THE DIVIDE

CITY           SKY/WX    TMP DP  RH WIND       PRES   REMARKS
KALISPELL        N/A     45  42  89 CALM      30.13R
MISSOULA       MOCLDY    53  40  61 CALM      30.17R HAZE
BUTTE          CLEAR     45  33  63 SE3       30.28S
MULLAN PASS      N/A     61  33  35 SE5       30.27S
ANACONDA         N/A     52  36  54 SW7       30.24S
DEER LODGE       N/A     46  36  66 CALM      30.25S
EUREKA           N/A     48  39  71 MISG      30.14R
HAMILTON         N/A     57  39  51 S7        30.17S
LIBBY            N/A     52  41  66 E3        30.12S
PLAINS           N/A     50  39  65 CALM      30.13R
RONAN            N/A     48  42  80 CALM      30.16S
$$

MTZ008-052>055-221100-
SOUTHWEST MONTANA

CITY           SKY/WX    TMP DP  RH WIND       PRES   REMARKS
BOZEMAN        PTCLDY    48  38  68 CALM      30.22S
DILLON         CLOUDY    52  32  46 S8        30.24S
W YELLOWSTONE  CLOUDY    36  32  87 CALM      30.35S
ENNIS          PTCLDY    43  32  65 E5        30.30S HAZE
THREE FORKS      N/A     43  37  79 CALM      30.18S
TWIN BRIDGES     N/A     47  31  54 CALM      30.20S
$$

MTZ009-010-012-014-046-048-049-054-221100-
EAST SLOPES AND CENTRAL MONTANA

CITY           SKY/WX    TMP DP  RH WIND       PRES   REMARKS
CUT BANK         N/A     48  35  60 NE3       30.16S
GREAT FALLS    CLOUDY    53  34  48 S8        30.15F
HELENA         CLEAR     58  37  45 CALM      30.18R
CHOTEAU          N/A     50  39  66 W6        30.18S
CONRAD           N/A     49  38  65 CALM      30.16S
$$

MTZ011-013-016-021-045-047-050-051-221100-
NORTH CENTRAL MONTANA

CITY           SKY/WX    TMP DP  RH WIND       PRES   REMARKS
HAVRE          PTCLDY    55  38  52 E5        30.12S
LEWISTOWN      CLEAR     53  34  48 SE9       30.19F
N BAR RANCH      N/A     50  32  50 W7        30.25F
CHINOOK          N/A     54  37  54 E7        30.13F
$$

MTZ017>020-022>027-061-062-221100-
NORTHEAST MONTANA

CITY           SKY/WX    TMP DP  RH WIND       PRES   REMARKS
JORDAN           N/A     45  31  58 CALM      30.18F
SIDNEY         PTCLDY    44  36  73 CALM      30.19S
WOLF POINT     CLOUDY    47  31  53 CALM      30.19S
MALTA          MOCLDY    48  39  71 E5        30.16F
PLENTYWOOD       N/A     48  34  57 CALM      30.18S
POPLAR           N/A     45  36  70 N5        30.19S
SCOBEY           N/A     40  28  62 CALM      30.16F
$$

MTZ028>42-056>058-221100-
SOUTHCENTRAL AND SOUTHEAST MONTANA

CITY           SKY/WX    TMP DP  RH WIND       PRES   REMARKS
BAKER          PTCLDY    48  35  60 E6        30.21F
BILLINGS       PTCLDY    58  32  37 N6        30.17S
LIVINGSTON     CLOUDY    47  34  60 VRB3      30.24R
MILES CITY     MOCLDY    57  34  41 NE6       30.18S
BIG TIMBER     CLOUDY    52  34  50 W9        30.25S
EKALAKA          N/A     55  35  46 SE5       30.18
LAUREL           N/A     52  35  52 W3        30.16F
$$

REGIONAL REPORTS...DAKOTAS

CITY           SKY/WX    TMP DP  RH WIND       PRES   REMARKS
WILLISTON      CLEAR     42  36  79 CALM      30.18S
MINOT          CLEAR     50  40  68 SW9       30.12S
DICKINSON      CLOUDY    44  37  76 SW5       30.18S
BEACH            N/A     45  39  81 SW3       30.24R
CROSBY           N/A     41  41 100 SW5       30.17R
TIOGA            N/A     43  39  87 CALM      30.18S
WATFORD CITY     N/A     39  36  87 CALM      30.18S
BISMARCK       CLEAR     49  45  86 W5        30.16R
GRAND FORKS    PTCLDY    50  47  89 W7        29.99S
FARGO          CLEAR     50  47  89 W5        30.01F
BUFFALO SD       N/A     55  39  54 SW3       30.15F
RAPID CITY     CLEAR     49  41  74 NW5       30.22S
$$

REGIONAL REPORTS...WYOMING/IDAHO/WASHINGTON

CITY           SKY/WX    TMP DP  RH WIND       PRES   REMARKS
GILLETTE       CLEAR     58  36  43 S13       30.22F
SHERIDAN       CLEAR     46  38  73 S5        30.19S
BUFFALO WY     CLEAR     56  32  40 SE6       30.25F
CODY           CLEAR     54  37  52 CALM      30.26S
YELLOWSTONE LA   N/A     36  33  89 CALM      30.43F
IDAHO FALLS    CLOUDY    46  40  79 CALM      30.22S
SALMON         CLEAR     48  38  68 CALM      30.20R
BOISE            N/A     64  39  39 SE9       30.07R
SPOKANE          N/A     63  47  55 CALM      30.06S
$$

REGIONAL REPORTS...ALBERTA

CITY           SKY/WX    TMP DP  RH WIND       PRES   REMARKS
EDMONTON       CLOUDY    61  55  82 SW2       30.07F
CALGARY        PTCLDY    50  43  76 NW3       30.14S
LETHBRIDGE     CLEAR     48  39  71 SW8       30.12R
MEDICINE HAT   MOCLDY    55  43  62 CALM      30.11S
$$

REGIONAL REPORTS...SASKATCHEWAN

CITY           SKY/WX    TMP DP  RH WIND       PRES   REMARKS
SWIFT CURRENT  MOCLDY    52  32  46 S10       30.15S
SASKATOON      MOCLDY    50  43  76 S5        30.12F
$$




USA.gov is the U.S. government's official web portal to all federal, state and local government web resources and services.